{"data":{"norad_id":48120,"intl_designator":"2021-027AE","name":"STARLINK-2460","alt_names":[],"object_type":"PAYLOAD","status":"ACTIVE","operator":null,"country":"US","launch_date":"2021-04-07","launch_site_code":"AFETR","launch_vehicle":null,"mission":null,"orbit_class":"UNKNOWN","rcs_meters":null,"size_class":null,"mass_kg":null,"dimensions":null,"purposes":["comms"],"wikipedia_slug":null,"has_3d_model":false,"image_url":null,"decayed_at":null,"tle_current":{"epoch":"2026-05-25T01:43:16.855968Z","epoch_age_seconds":72136,"freshness":"FRESH","line1":"1 48120U 21027AE  26145.07172287  .00014975  00000+0  36204-3 0  9992","line2":"2 48120  53.1587 170.5776 0002124  55.8736 304.2470 15.41387321284214","mean_motion":15.41387321,"eccentricity":0.0002124,"inclination_deg":53.1587,"raan_deg":170.5776,"arg_perigee_deg":55.8736,"mean_anomaly_deg":304.247,"bstar":0.00036204,"rev_number":28421,"period_min":93.422333269601,"perigee_km":440.56534191103,"apogee_km":443.46254203118,"semimajor_km":6820.1509419711,"source":"CELESTRAK","updated_at":"2026-05-25T13:38:16.645929Z"}}}